Temperature
11 11 11 11 11 11 11 11 11 11 11 11 11 11 11 11 11 11 11 11 11 11 11 11 11 11 11 10 10 10 10 10 10 10 10 10 10 10 10 10 10 10 10
11 11 11 11 11 11 11 11 11 11 11 11 11 11 11 11 11 11 11 11 11 11 11 11 11 11 10 10 10 10 10 10 10 10 10 10 10 9 9 9 9 9 9
11 11 10 10 10 10 10 10 10 10 10 10 10 10 10 10 10 10 10 10 10 11 10 10 10 10 10 10 10 10 9 9 9 9 9 9 9 9 9 9 9 9 9
10 10 10 10 10 10 10 10 10 10 10 10 10 10 10 10 10 10 10 10 10 10 10 10 10 10 10 9 9 9 9 9 9 9 9 9 9 9 9 8 8 8 8
10 10 10 10 10 10 10 9 9 9 9 9 9 9 9 9 9 9 9 9 9 10 10 10 10 9 9 9 9 9 9 9 9 9 8 8 8 8 8 8 8 8 8
10 10 10 9 9 9 9 9 9 9 9 9 9 9 9 9 9 9 9 9 9 9 9 9 9 9 9 9 9 8 8 8 8 8 8 8 8 8 8 7 7 7 7
9 9 9 9 9 9 9 9 9 9 8 8 8 8 8 8 8 8 8 8 8 8 8 8 8 8 8 8 8 8 8 8 8 8 8 7 7 7 7 7 7 7 7
9 9 9 9 9 9 9 9 8 8 8 8 8 8 7 7 8 8 8 8 8 8 8 8 8 8 8 8 8 8 8 8 7 7 7 7 7 6 6 6 6 6 6
9 9 9 9 9 8 8 8 8 8 8 8 8 8 7 7 7 7 7 7 7 7 7 7 7 7 7 7 7 7 7 7 7 7 6 6 6 6 6 6 6 6 6
8 8 8 8 8 8 8 8 8 8 8 7 7 7 7 7 7 7 7 7 7 7 7 7 7 7 7 7 7 7 7 7 6 6 6 6 6 6 5 5 5 5 5
8 8 8 8 8 8 8 8 7 7 7 7 7 7 7 7 7 7 6 6 6 7 6 6 6 6 6 6 6 6 6 6 6 6 5 5 5 5 5 5 5 5 5
7 7 7 7 7 7 7 7 7 7 7 7 7 7 7 7 7 7 6 6 6 6 6 6 6 6 6 6 6 6 6 6 5 5 5 5 5 5 5 5 5 5 4
7 7 7 7 7 7 7 7 7 7 7 7 6 6 6 6 6 6 6 6 6 6 6 6 6 6 6 5 5 5 5 5 5 5 5 4 4 5 5 4 4 4 4
7 7 7 7 7 7 7 6 6 6 6 6 6 6 6 6 6 6 6 6 5 5 5 5 5 5 5 5 5 5 5 5 4 4 4 4 4 4 4 4 4 4 4
6 6 7 6 6 6 6 6 6 6 6 6 6 6 5 5 5 5 5 5 5 4 4 5 5 5 5 4 4 4 4 4 4 4 4 4 4 4 4 3 3 3 3
6 6 6 6 6 6 6 6 6 6 5 5 5 5 5 5 5 5 5 5 4 4 4 4 4 4 4 4 4 4 4 4 4 3 3 3 3 3 3 3 3 3 2
5 5 5 6 6 6 5 5 5 5 5 5 5 5 5 4 5 4 4 4 4 4 4 4 4 4 3 4 4 3 3 3 3 3 3 3 3 3 2 2 2 2 2
5 5 5 5 5 5 5 5 5 5 5 4 4 4 4 4 4 4 4 4 4 4 3 3 3 3 3 3 3 3 3 3 2 2 2 2 2 2 2 2 1 1 1
4 5 5 5 5 5 4 4 4 4 4 4 4 4 4 4 4 4 4 3 3 3 3 3 2 2 2 2 2 2 2 2 2 2 2 1 1 1 1 1 1 1 1
4 4 4 4 4 4 4 4 4 4 4 4 4 4 4 3 3 3 3 3 3 3 2 2 2 2 2 2 1 1 1 1 1 1 1 1 1 1 1 1 1 1 0
4 4 4 4 4 4 4 3 3 3 3 3 3 3 3 3 3 3 3 2 2 2 2 2 1 1 1 1 1 1 1 1 1 1 1 1 1 1 0 0 0 0 0
3 3 3 3 3 3 3 3 3 3 3 3 3 3 3 2 2 2 2 2 2 2 1 1 1 1 1 1 0 0 0 -0 0 0 0 0 0 0 0 0 -0 -0 -0
3 3 3 3 3 3 3 3 3 3 2 2 3 3 2 2 2 2 2 2 2 1 1 1 1 1 1 0 0 -0 -0 -0 -0 -0 -0 -0 -0 -0 -0 -0 -1 -1 -1
2 2 2 2 2 2 2 2 2 2 2 2 2 2 2 2 2 2 1 1 1 1 1 0 0 0 -0 -0 -0 -0 -1 -1 -1 -1 -1 -1 -1 -1 -1 -1 -1 -1 -1
2 2 2 1 1 2 2 2 2 2 1 1 2 1 1 1 1 1 1 1 1 1 0 -0 -0 -0 -0 -1 -1 -1 -1 -1 -1 -1 -1 -2 -1 -1 -1 -1 -1 -1 -2
1 1 1 1 1 1 1 1 1 1 1 1 1 1 1 1 1 1 1 1 0 0 -0 -0 -0 -1 -1 -1 -1 -1 -1 -2 -2 -2 -2 -2 -2 -2 -2 -2 -2 -2 -2
Wind_Speed
3 4 4 4 4 4 4 3 3 4 3 4 5 5 5 6 8 9 8 9 9 8 7 7 6 6 6 6 6 7 6 6 6 7 7 7 7 8 8 8 8 8 9
4 3 3 3 3 4 3 3 3 3 3 4 4 5 5 6 7 9 9 8 8 8 7 6 6 5 5 5 5 5 5 5 5 5 6 6 6 7 7 7 7 8 8
5 4 3 2 3 4 3 3 3 3 3 3 3 5 5 6 6 7 8 8 8 7 7 6 6 5 5 4 4 4 5 5 5 5 5 5 5 6 6 6 7 7 7
5 4 3 2 3 4 3 2 2 2 3 3 3 2 4 5 5 6 7 7 7 6 6 6 5 4 4 3 3 3 3 4 4 4 4 4 4 4 5 5 6 6 7
6 5 4 3 3 3 2 2 2 2 3 3 3 3 2 3 3 5 5 6 6 7 6 5 5 4 3 3 3 2 2 3 3 3 3 3 4 4 4 5 5 6 6
6 5 4 4 3 2 2 2 3 3 3 3 3 3 2 2 3 3 3 5 5 6 6 5 4 4 3 2 2 2 1 1 2 3 3 3 3 4 4 4 5 5 6
5 5 4 4 3 3 3 3 3 4 3 3 3 2 2 2 2 2 2 3 3 4 5 4 4 4 3 2 1 1 0 0 2 2 3 3 3 4 4 4 5 5 5
5 5 4 4 4 3 3 3 3 2 2 3 3 2 1 1 1 0 1 1 2 3 3 3 2 3 3 3 2 2 1 1 2 2 2 3 4 4 4 5 5 6 6
5 4 4 4 4 3 3 3 3 3 3 2 2 2 3 3 1 0 1 1 1 1 1 2 1 2 3 3 3 2 1 1 2 3 3 3 4 5 5 5 6 6 7
4 5 5 4 4 4 3 4 3 3 4 3 2 1 2 2 2 1 1 1 1 1 1 1 1 0 1 2 2 2 1 1 3 4 4 4 5 6 6 6 6 7 8
4 5 5 5 4 4 4 4 3 3 3 3 2 2 1 1 1 2 2 2 1 1 1 1 2 2 2 1 2 2 1 2 4 4 5 5 6 6 6 7 7 7 8
4 4 5 5 5 4 4 4 4 4 3 3 2 2 2 2 2 2 2 2 2 2 1 1 2 3 3 3 2 2 2 3 4 5 6 6 6 6 7 7 8 8 9
3 5 4 4 4 4 5 4 4 4 4 4 3 2 2 2 2 2 2 2 1 1 1 2 3 2 2 3 2 3 4 4 4 5 6 6 6 6 7 7 8 9 9
5 5 5 5 5 5 5 4 3 3 3 4 4 3 2 2 2 2 2 3 1 1 2 3 1 2 2 2 3 3 4 4 5 5 6 6 6 6 7 8 9 9 10
5 6 6 5 5 5 5 5 4 4 4 4 4 3 2 2 2 2 2 3 3 3 3 3 1 2 2 3 4 4 4 5 5 5 6 6 7 7 7 8 9 9 10
5 6 6 6 5 5 5 4 4 4 5 4 3 4 3 2 2 2 2 2 2 3 3 3 2 1 2 3 5 5 5 6 6 7 7 7 7 7 7 8 9 10 11
6 6 7 6 6 5 5 5 4 5 5 4 4 4 4 3 3 3 2 2 2 2 3 3 2 1 2 2 3 4 5 5 6 7 7 8 8 8 9 9 10 10 11
6 6 6 6 6 5 5 5 6 5 6 6 5 5 4 3 3 3 3 3 3 3 3 3 2 2 3 3 2 3 3 4 5 7 8 8 8 9 9 10 10 11 11
5 5 5 6 6 5 5 5 5 5 5 5 6 6 5 5 4 3 3 3 3 3 2 3 3 2 2 2 2 3 3 3 5 7 8 8 9 10 10 11 11 11 12
5 5 5 5 5 5 5 5 4 4 4 4 4 5 5 6 6 5 4 4 3 3 2 2 2 2 2 2 1 2 3 3 3 5 7 8 10 11 11 12 12 12 12
4 4 5 4 4 4 5 5 5 5 4 4 4 4 4 5 6 5 4 4 4 4 3 3 3 2 2 2 3 3 3 3 4 3 3 5 6 7 9 11 11 12 13
4 4 4 4 4 3 5 6 5 4 4 5 4 4 4 5 5 5 5 4 4 4 4 4 3 4 4 4 3 3 3 3 4 2 2 5 4 5 7 8 11 12 13
4 4 4 4 4 4 6 6 5 4 4 4 4 4 4 4 5 4 4 3 3 5 5 5 5 5 5 5 4 4 4 4 5 4 3 6 4 5 7 9 12 13 13
4 3 3 4 4 4 6 5 5 4 3 3 3 4 4 4 4 4 3 3 2 3 4 3 4 4 4 3 4 4 4 4 4 3 2 5 5 5 7 8 12 13 13
3 2 3 3 3 3 5 5 4 3 2 2 2 2 3 4 4 5 4 4 3 3 3 3 3 3 5 5 4 1 2 3 5 4 2 3 4 5 6 5 9 11 12
2 3 2 2 3 3 4 5 5 3 3 2 1 2 3 4 4 4 3 4 4 3 2 2 2 2 3 3 3 2 3 3 4 4 2 2 4 4 4 3 4 7 9
Wind_Direction
131 123 119 125 129 134 144 144 138 134 128 109 106 106 100 93 97 98 99 104 109 112 112 105 99 100 97 92 86 84 80 79 72 65 62 58 54 51 49 45 41 38 37
119 122 116 112 122 128 131 129 119 121 111 103 100 100 98 99 107 116 114 109 109 114 112 107 99 99 95 92 90 85 81 75 68 61 57 56 55 50 44 40 37 35 35
127 125 127 128 128 137 135 118 113 106 102 98 95 90 91 93 98 111 119 120 114 112 116 111 104 100 99 96 96 90 84 74 61 55 54 52 49 44 40 36 32 30 29
141 129 132 141 144 142 131 123 126 115 106 101 94 80 82 87 92 104 111 120 123 120 117 116 114 108 108 108 101 90 81 70 54 44 42 41 40 37 34 32 25 22 19
150 138 136 145 148 129 127 147 123 126 121 112 109 92 72 72 82 99 107 112 119 123 120 118 120 120 116 119 112 100 88 68 47 30 26 28 24 23 25 18 11 13 10
157 145 141 149 146 138 144 142 137 124 119 122 110 89 73 65 71 81 96 107 114 123 123 124 121 120 133 130 117 105 106 72 29 10 359 5 11 10 9 359 0 1 359
159 148 149 152 153 158 160 152 141 135 129 117 102 85 46 55 77 75 88 108 109 119 126 130 131 128 127 155 156 133 97 30 352 337 335 346 357 354 355 353 346 344 343
162 156 152 161 155 155 155 151 140 140 146 134 132 131 129 13 332 84 93 115 123 116 123 133 144 152 143 141 165 168 113 39 360 349 342 344 344 341 340 344 342 337 334
165 156 155 152 155 159 165 162 161 149 166 174 148 145 154 192 178 247 221 157 151 140 125 121 157 165 150 149 145 146 158 7 328 316 319 323 326 324 328 332 332 331 328
157 159 154 154 157 159 170 175 165 158 160 178 190 162 141 138 145 173 263 236 188 178 184 150 153 190 156 130 143 151 180 272 292 296 302 307 313 313 316 322 325 323 322
165 165 157 159 164 165 170 172 164 168 167 174 176 167 124 74 119 161 208 238 267 254 224 200 200 195 203 176 174 187 219 273 282 288 295 298 303 306 311 315 317 318 317
172 168 162 164 166 166 169 173 176 173 172 170 171 162 158 163 189 169 184 200 224 243 247 235 221 203 195 194 191 200 224 265 283 285 291 295 299 304 309 311 311 311 311
176 182 174 172 170 168 164 163 172 178 171 169 174 179 169 174 170 158 159 177 200 230 218 239 227 210 203 193 193 225 231 254 274 283 289 296 302 306 307 306 306 308 310
182 182 177 173 168 166 166 163 172 178 167 168 173 167 164 177 163 163 166 163 173 235 233 239 246 216 211 216 225 236 233 249 269 279 287 297 305 308 305 304 305 306 307
176 176 173 171 168 166 167 166 175 177 169 171 175 171 169 174 163 157 152 162 170 201 231 228 221 222 228 239 240 238 245 254 264 272 282 292 297 299 299 300 301 302 302
168 170 172 171 168 167 170 171 173 174 168 173 172 171 177 179 172 168 170 185 184 192 224 223 222 243 234 252 248 246 248 258 264 268 275 279 283 289 292 292 293 296 296
166 170 172 172 168 171 173 169 170 172 171 173 178 177 184 180 174 181 181 188 195 187 219 249 245 253 242 249 258 257 257 254 261 266 273 277 279 283 288 290 289 292 294
169 170 168 168 169 169 171 173 176 178 176 179 183 180 188 182 180 188 192 200 203 200 201 230 249 256 253 241 250 256 270 271 269 273 275 277 279 282 286 287 288 289 290
167 167 166 170 171 170 173 174 176 179 181 183 184 185 188 179 191 195 197 203 207 211 198 211 244 255 267 254 270 275 271 273 276 275 276 277 278 282 286 288 288 287 287
166 167 167 170 170 173 174 172 171 174 181 186 185 185 188 188 194 193 197 201 198 195 191 201 233 258 264 266 257 266 276 264 272 281 277 282 280 281 283 284 283 283 284
164 161 160 165 168 174 175 171 178 181 183 185 183 183 190 191 196 199 201 203 198 199 201 207 230 252 258 253 249 248 264 278 277 264 268 272 275 273 274 277 279 280 282
156 157 163 168 173 177 170 175 180 181 184 185 185 185 190 192 193 196 204 211 211 208 212 219 236 238 247 249 249 257 264 287 283 262 266 280 267 270 271 273 279 284 285
156 157 165 168 172 170 174 181 185 185 185 187 187 186 190 194 191 188 198 209 228 239 235 227 228 236 240 237 234 251 251 262 274 274 280 281 274 271 275 281 282 283 285
146 152 164 168 168 174 176 179 183 182 180 184 188 192 193 190 193 188 181 190 217 236 241 235 228 236 240 233 226 241 248 272 288 274 261 278 287 285 290 282 280 281 284
133 145 154 156 162 174 178 176 171 168 164 174 189 198 194 187 189 186 184 193 210 235 244 238 254 263 265 257 243 243 253 275 288 284 265 268 288 299 292 281 277 283 288
129 136 135 145 156 161 168 168 167 167 168 170 177 194 197 193 194 197 200 194 206 227 218 233 260 274 275 259 248 226 225 254 280 281 273 281 294 316 305 282 270 283 291
Height
1525 1527 1529 1531 1533 1535 1537 1538 1540 1542 1544 1545 1546 1547 1548 1549 1550 1551 1552 1553 1554 1555 1555 1556 1557 1557 1557 1557 1558 1558 1558 1558 1558 1557 1557 1557 1557 1557 1556 1556 1556 1555 1555
1523 1525 1527 1529 1531 1533 1535 1537 1539 1541 1542 1544 1545 1546 1547 1548 1549 1550 1551 1552 1553 1554 1554 1555 1555 1556 1556 1556 1557 1557 1557 1557 1557 1556 1556 1556 1556 1556 1555 1555 1555 1554 1554
1521 1523 1525 1527 1529 1531 1533 1535 1537 1539 1541 1542 1543 1545 1546 1547 1548 1549 1550 1550 1551 1552 1553 1553 1554 1555 1555 1555 1555 1556 1556 1556 1556 1555 1555 1555 1555 1554 1554 1554 1554 1553 1553
1519 1521 1523 1525 1527 1529 1531 1533 1535 1537 1538 1540 1542 1543 1544 1545 1546 1547 1548 1549 1549 1550 1551 1552 1552 1553 1554 1554 1554 1554 1554 1554 1554 1554 1554 1553 1553 1553 1553 1552 1552 1552 1551
1516 1518 1520 1522 1525 1527 1529 1531 1533 1535 1536 1538 1540 1541 1542 1544 1545 1545 1546 1547 1548 1548 1549 1550 1551 1551 1552 1552 1553 1553 1553 1552 1552 1552 1552 1552 1551 1551 1551 1551 1550 1550 1549
1513 1516 1517 1520 1522 1525 1527 1529 1531 1533 1534 1536 1538 1539 1541 1542 1543 1544 1545 1545 1546 1546 1547 1548 1549 1549 1550 1550 1551 1551 1551 1551 1550 1550 1550 1549 1549 1549 1549 1549 1548 1548 1547
1511 1513 1515 1517 1519 1522 1524 1526 1528 1530 1532 1534 1535 1537 1539 1540 1541 1542 1543 1543 1544 1545 1545 1546 1546 1547 1548 1548 1548 1549 1549 1549 1548 1548 1548 1547 1547 1547 1547 1546 1546 1546 1545
1508 1510 1512 1514 1516 1519 1521 1523 1525 1527 1529 1531 1533 1534 1536 1539 1539 1540 1541 1541 1542 1543 1543 1544 1544 1545 1545 1546 1546 1546 1546 1546 1546 1546 1545 1545 1544 1544 1544 1544 1544 1543 1543
1505 1507 1509 1511 1513 1516 1518 1520 1522 1524 1526 1528 1530 1532 1533 1534 1536 1537 1538 1539 1540 1541 1541 1542 1542 1542 1543 1543 1544 1544 1544 1543 1544 1544 1543 1543 1542 1542 1542 1541 1541 1540 1540
1502 1504 1506 1508 1511 1513 1515 1517 1519 1521 1523 1525 1527 1529 1531 1531 1533 1534 1536 1536 1537 1538 1539 1539 1539 1540 1540 1540 1540 1541 1541 1540 1541 1541 1540 1540 1540 1539 1539 1538 1538 1537 1536
1498 1501 1503 1505 1507 1509 1512 1514 1516 1518 1520 1522 1524 1525 1527 1529 1530 1531 1531 1533 1534 1535 1536 1536 1537 1537 1537 1537 1537 1537 1538 1538 1538 1538 1537 1537 1536 1536 1536 1535 1534 1533 1533
1495 1497 1499 1502 1504 1506 1508 1511 1513 1515 1517 1519 1521 1522 1524 1525 1526 1528 1528 1529 1530 1531 1532 1533 1534 1534 1534 1534 1534 1535 1535 1535 1534 1534 1534 1533 1533 1532 1532 1531 1531 1530 1529
1490 1493 1495 1498 1500 1502 1505 1507 1509 1511 1513 1515 1517 1519 1521 1522 1524 1525 1525 1526 1527 1528 1528 1529 1530 1530 1531 1531 1531 1531 1531 1531 1531 1530 1530 1530 1529 1528 1528 1527 1527 1526 1525
1486 1489 1492 1494 1497 1499 1501 1503 1506 1507 1509 1511 1513 1515 1517 1519 1520 1521 1522 1523 1523 1524 1524 1525 1526 1526 1527 1527 1528 1528 1527 1527 1527 1527 1526 1526 1525 1524 1523 1523 1522 1521 1520
1483 1486 1488 1491 1493 1495 1497 1500 1502 1503 1505 1507 1510 1511 1513 1515 1516 1518 1519 1520 1521 1520 1520 1521 1522 1522 1523 1523 1523 1523 1523 1523 1523 1522 1522 1521 1521 1520 1519 1518 1518 1517 1516
1480 1482 1484 1487 1489 1491 1493 1496 1498 1500 1501 1503 1506 1508 1509 1511 1512 1514 1515 1516 1517 1518 1517 1517 1518 1519 1519 1519 1519 1519 1519 1518 1518 1518 1517 1517 1516 1515 1514 1514 1513 1512 1511
1476 1478 1480 1483 1485 1487 1489 1491 1493 1496 1497 1499 1502 1503 1505 1507 1508 1510 1511 1512 1512 1513 1513 1513 1514 1514 1515 1514 1514 1514 1514 1514 1513 1513 1513 1512 1511 1510 1509 1509 1508 1507 1506
1473 1475 1477 1479 1481 1483 1486 1488 1490 1492 1493 1495 1497 1499 1501 1503 1504 1505 1506 1507 1508 1509 1509 1508 1509 1509 1510 1510 1510 1510 1509 1509 1509 1508 1508 1507 1506 1506 1505 1504 1503 1502 1501
1470 1472 1473 1475 1477 1479 1482 1484 1486 1488 1490 1492 1493 1495 1497 1498 1499 1501 1502 1503 1504 1505 1505 1505 1504 1505 1505 1506 1505 1505 1505 1504 1504 1504 1503 1502 1502 1501 1500 1499 1498 1497 1496
1466 1468 1470 1472 1474 1476 1478 1480 1482 1484 1486 1488 1489 1491 1492 1494 1495 1496 1498 1499 1499 1500 1501 1501 1500 1501 1501 1501 1501 1500 1499 1499 1499 1499 1498 1498 1497 1496 1495 1494 1493 1492 1491
1463 1464 1467 1469 1470 1472 1474 1476 1478 1480 1482 1484 1485 1487 1488 1490 1491 1492 1494 1494 1495 1496 1496 1496 1496 1496 1496 1496 1496 1496 1495 1494 1494 1494 1493 1492 1491 1490 1489 1489 1488 1487 1485
1459 1461 1463 1465 1467 1468 1471 1473 1475 1476 1478 1479 1481 1482 1484 1486 1487 1488 1489 1490 1491 1492 1492 1492 1492 1492 1492 1492 1492 1491 1491 1490 1488 1489 1488 1486 1486 1485 1484 1483 1482 1481 1480
1456 1458 1460 1461 1463 1465 1467 1469 1471 1473 1474 1475 1477 1478 1480 1481 1482 1484 1485 1486 1486 1487 1488 1489 1488 1488 1488 1488 1488 1487 1486 1485 1484 1484 1483 1480 1480 1479 1479 1478 1477 1476 1474
1453 1454 1456 1458 1460 1462 1464 1466 1468 1469 1470 1472 1473 1474 1476 1477 1478 1479 1480 1481 1481 1482 1483 1484 1484 1484 1484 1484 1484 1483 1482 1481 1480 1479 1479 1476 1474 1473 1472 1471 1471 1470 1468
1450 1452 1453 1455 1457 1458 1461 1463 1464 1466 1467 1468 1470 1471 1472 1473 1474 1475 1476 1476 1477 1477 1479 1479 1479 1479 1479 1480 1479 1479 1478 1477 1474 1473 1474 1472 1469 1468 1466 1465 1465 1464 1462
1447 1449 1450 1452 1454 1455 1457 1459 1461 1462 1463 1464 1466 1467 1468 1469 1470 1471 1471 1472 1472 1473 1474 1474 1475 1475 1475 1475 1475 1475 1474 1473 1471 1469 1468 1468 1465 1464 1460 1458 1459 1458 1456